Weather observations for the past three days for
Wadena Municipal Airport
Imperial (Metric)
Date Time (cdt) Wind (mph) Vis. (mi.) Weather Sky Cond. Temperature (ºF) Relative Humidity Wind Chill (°F) Heat Index (°F) Pressure Precipitation (in)
Air Dwpt 6 hour altimeter (in) sea level (mb) 1 hr 3 hr 6 hr
Max. Min.
20 10:35 W 3 10.00 NULL NULL 75.2 66.2 74% 77 30.12 0.0
20 10:15 W 5 10.00 NULL NULL 75.2 64.4 69% 77 30.12 0.0
20 09:55 Calm 10.00 NULL NULL 75.2 64.4 69% 77 30.12 0.0
20 09:36 Calm 10.00 NULL NULL 73.4 66.2 78% 30.12 0.0
20 09:15 Calm 10.00 NULL NULL 73.4 66.2 78% 30.12 0.0
20 08:55 W 3 10.00 NULL NULL 71.6 66.2 83% 30.12 0.0
20 08:35 SW 3 10.00 NULL NULL 69.8 66.2 88% 30.12 0.0
20 08:15 Calm 10.00 NULL NULL 69.8 64.4 83% 30.12 0.0
20 07:55 Calm 10.00 NULL NULL 66.2 64.4 94% 30.12 0.0
20 07:35 Calm 7.00 NULL NULL 64.4 62.6 94% 30.12 0.0
20 07:16 Calm 5.00 Fog/Mist NULL 62.6 60.8 94% 30.12 0.0
20 06:55 Calm 7.00 NULL NULL 60.8 59 94% 30.11 0.0
20 06:35 Calm 4.00 Fog/Mist NULL 60.8 59 94% 30.1 0.0
20 06:15 Calm 5.00 Fog/Mist NULL 59 57.2 94% 30.1 0.0
20 05:55 Calm 0.75 Fog/Mist NULL 57.2 57.2 100% 30.1 0.0
20 05:35 Calm 0.15 Fog NULL 57.2 57.2 100% 30.09 0.0
20 05:15 Calm 0.25 Fog NULL 57.2 57.2 100% 30.08 0.0
20 04:56 Calm 7.00 NULL NULL 57.2 57.2 100% 30.08 0.0
20 04:35 Calm 0.75 Fog/Mist NULL 57.2 57.2 100% 30.07 0.0
20 04:15 Calm 7.00 NULL NULL 57.2 57.2 100% 30.07 0.0
20 03:55 Calm 7.00 NULL NULL 59 57.2 94% 30.07 0.0
20 03:35 Calm 10.00 NULL NULL 59 57.2 94% 30.06 0.0
20 03:15 Calm 10.00 NULL NULL 60.8 59 94% 30.06 0.0
20 02:55 Calm 10.00 NULL NULL 60.8 59 94% 30.07 0.0
20 02:36 Calm 1.50 Fog/Mist NULL 60.8 57.2 88% 30.07 0.0
20 02:15 Calm 5.00 Fog/Mist NULL 60.8 59 94% 30.07 0.0
20 01:55 Calm 7.00 NULL NULL 60.8 59 94% 30.07 0.0
20 01:35 Calm 10.00 NULL NULL 62.6 60.8 94% 30.07 0.0
20 01:15 Calm 10.00 NULL NULL 62.6 60.8 94% 30.08 0.0
20 00:55 Calm 4.00 Fog/Mist NULL 62.6 60.8 94% 30.08 0.0
20 00:35 Calm 10.00 NULL NULL 62.6 60.8 94% 30.07 0.0
20 00:16 Calm 10.00 NULL NULL 62.6 60.8 94% 30.07 0.0
19 23:55 Calm 10.00 NULL NULL 64.4 60.8 88% 30.07 0.0
19 23:35 Calm 10.00 NULL NULL 64.4 60.8 88% 30.07 0.0
19 23:15 Calm 10.00 NULL NULL 64.4 62.6 94% 30.07 0.0
19 22:55 Calm 10.00 NULL NULL 66.2 62.6 88% 30.07 0.0
19 22:35 Calm 10.00 NULL NULL 64.4 62.6 94% 30.07 0.0
19 22:15 Calm 10.00 NULL NULL 68 62.6 83% 30.07 0.0
19 21:56 Calm 10.00 NULL NULL 68 62.6 83% 30.06 0.0
19 21:35 E 3 10.00 NULL NULL 69.8 64.4 83% 30.06 0.0
19 21:15 Calm 10.00 NULL NULL 69.8 64.4 83% 30.06 0.0
19 20:55 Calm 10.00 NULL NULL 71.6 64.4 78% 30.06 0.0
19 20:35 Calm 10.00 NULL NULL 73.4 64.4 74% 30.05 0.0
19 20:15 S 3 10.00 NULL NULL 73.4 64.4 74% 30.05 0.0
19 19:56 SE 5 10.00 NULL NULL 75.2 64.4 69% 77 30.04 0.0
19 19:35 S 8 10.00 NULL NULL 77 64.4 65% 79 30.05 0.0
19 19:15 S 7 10.00 NULL NULL 78.8 62.6 58% 80 30.05 0.0
19 18:55 S 8 10.00 Thunderstorm in Vicinity NULL 77 64.4 65% 79 30.04 0.0
19 18:35 S 3 10.00 NULL NULL 78.8 59 51% 80 30.04 0.0
19 18:15 S 5 10.00 NULL NULL 80.6 59 48% 81 30.04 0.0
19 17:55 SE 5 10.00 NULL NULL 80.6 59 48% 81 30.04 0.0
19 17:36 Calm 10.00 NULL NULL 80.6 59 48% 81 30.04 0.0
19 17:15 Calm 10.00 NULL NULL 78.8 57.2 48% 80 30.05 0.0
19 16:55 Calm 10.00 NULL NULL 80.6 57.2 45% 81 30.05 0.0
19 16:35 W 3 10.00 NULL NULL 80.6 60.8 51% 81 30.05 0.0
19 16:15 S 6 10.00 NULL NULL 82.4 60.8 48% 83 30.05 0.0
19 15:55 Calm 10.00 NULL NULL 82.4 59 45% 82 30.05 0.0
19 15:35 SW 3 10.00 NULL NULL 82.4 59 45% 82 30.05 0.0
19 15:16 Calm 10.00 NULL NULL 80.6 59 48% 81 30.05 0.0
19 14:55 Calm 10.00 NULL NULL 80.6 57.2 45% 81 30.05 0.0
19 14:35 S 7 10.00 NULL NULL 80.6 57.2 45% 81 30.05 0.0
19 14:15 S 5 10.00 NULL NULL 80.6 59 48% 81 30.05 0.0
19 13:55 S 3 10.00 NULL NULL 80.6 57.2 45% 81 30.06 0.0
19 13:35 S 6 10.00 NULL NULL 78.8 59 51% 80 30.07 0.0
19 13:15 SW 7 10.00 NULL NULL 80.6 57.2 45% 81 30.07 0.0
19 12:56 S 8 10.00 NULL NULL 78.8 59 51% 80 30.08 0.0
19 12:35 S 5 10.00 NULL NULL 78.8 59 51% 80 30.08 0.0
19 12:15 S 6 10.00 NULL NULL 78.8 59 51% 80 30.08 0.0
19 11:55 S 8 10.00 NULL NULL 78.8 57.2 48% 80 30.08 0.0
19 11:35 S 6 10.00 NULL NULL 77 60.8 57% 79 30.08 0.0
19 11:15 S 8 10.00 NULL NULL 77 60.8 57% 79 30.09 0.0
19 10:55 S 6 10.00 NULL NULL 75.2 62.6 65% 77 30.08 0.0
19 10:36 S 6 10.00 NULL NULL 73.4 60.8 65% 30.09 0.0
19 10:15 S 7 10.00 NULL NULL 73.4 60.8 65% 30.09 0.0
19 09:55 S 7 10.00 NULL NULL 73.4 60.8 65% 30.09 0.0
19 09:35 S 3 10.00 NULL NULL 71.6 60.8 69% 30.09 0.0
19 09:15 S 3 10.00 NULL NULL 71.6 60.8 69% 30.1 0.0
19 08:55 S 5 10.00 NULL NULL 69.8 60.8 73% 30.1 0.0
19 08:35 S 3 10.00 NULL NULL 66.2 59 78% 30.1 0.0
19 08:16 SE 3 10.00 NULL NULL 64.4 59 83% 30.1 0.0
19 07:55 Calm 10.00 NULL NULL 62.6 57.2 83% 30.11 0.0
19 07:35 Calm 10.00 NULL NULL 60.8 57.2 88% 30.1 0.0
19 07:15 Calm 10.00 NULL NULL 59 55.4 88% 30.1 0.0
19 06:55 Calm 10.00 NULL NULL 57.2 53.6 88% 30.1 0.0
19 06:35 Calm 10.00 NULL NULL 55.4 53.6 94% 30.1 0.0
19 06:15 Calm 10.00 NULL NULL 53.6 51.8 94% 30.1 0.0
19 05:56 Calm 10.00 NULL NULL 53.6 51.8 94% 30.1 0.0
19 05:35 Calm 10.00 NULL NULL 53.6 51.8 94% 30.1 0.0
19 05:15 Calm 10.00 NULL NULL 55.4 53.6 94% 30.1 0.0
19 04:55 S 3 10.00 NULL NULL 55.4 53.6 94% 30.09 0.0
19 04:35 S 6 10.00 NULL NULL 57.2 53.6 88% 30.09 0.0
19 04:15 S 3 10.00 NULL NULL 57.2 53.6 88% 30.09 0.0
19 03:55 S 5 10.00 NULL NULL 57.2 53.6 88% 30.09 0.0
19 03:36 S 5 10.00 NULL NULL 57.2 53.6 88% 30.1 0.0
19 03:15 S 3 10.00 NULL NULL 57.2 53.6 88% 30.1 0.0
19 02:55 S 3 10.00 NULL NULL 57.2 53.6 88% 30.11 0.0
19 02:35 S 3 10.00 NULL NULL 59 55.4 88% 30.1 0.0
19 02:15 S 3 10.00 NULL NULL 57.2 53.6 88% 30.11 0.0
19 01:55 Calm 10.00 NULL NULL 59 53.6 82% 30.11 0.0
19 01:35 Calm 10.00 NULL NULL 57.2 53.6 88% 30.11 0.0
19 01:16 Calm 10.00 NULL NULL 59 53.6 82% 30.12 0.0
19 00:55 Calm 10.00 NULL NULL 57.2 53.6 88% 30.12 0.0
19 00:35 Calm 10.00 NULL NULL 57.2 53.6 88% 30.12 0.0
19 00:15 Calm 10.00 NULL NULL 59 55.4 88% 30.12 0.0
18 23:55 Calm 10.00 NULL NULL 59 55.4 88% 30.12 0.0
18 23:35 Calm 10.00 NULL NULL 62.6 55.4 77% 30.12 0.0
18 23:15 Calm 10.00 NULL NULL 62.6 55.4 77% 30.12 0.0
18 22:56 Calm 10.00 NULL NULL 62.6 55.4 77% 30.12 0.0
18 22:35 Calm 10.00 NULL NULL 62.6 55.4 77% 30.12 0.0
18 22:15 Calm 10.00 NULL NULL 62.6 55.4 77% 30.13 0.0
18 21:55 Calm 10.00 NULL NULL 64.4 55.4 73% 30.13 0.0
18 21:35 Calm 10.00 NULL NULL 64.4 55.4 73% 30.13 0.0
18 21:15 Calm 10.00 NULL NULL 64.4 55.4 73% 30.12 0.0
18 20:55 S 5 10.00 NULL NULL 66.2 57.2 73% 30.12 0.0
18 20:36 S 6 10.00 NULL NULL 69.8 57.2 64% 30.12 0.0
18 20:15 S 5 10.00 NULL NULL 71.6 57.2 61% 30.12 0.0
18 19:55 S 5 10.00 NULL NULL 73.4 57.2 57% 30.13 0.0
18 19:35 S 3 10.00 NULL NULL 73.4 55.4 53% 30.13 0.0
18 19:15 S 7 10.00 NULL NULL 75.2 55.4 50% 78 30.14 0.0
18 18:55 S 6 10.00 NULL NULL 75.2 55.4 50% 78 30.14 0.0
18 18:35 SW 6 10.00 NULL NULL 73.4 53.6 50% 30.15 0.0
18 18:16 SW 5 10.00 NULL NULL 73.4 55.4 53% 30.15 0.0
18 17:55 SW 5 10.00 NULL NULL 75.2 53.6 47% 78 30.15 0.0
18 17:35 SW 8 10.00 NULL NULL 75.2 55.4 50% 78 30.15 0.0
18 17:15 SW 8 10.00 NULL NULL 75.2 55.4 50% 78 30.16 0.0
18 16:55 SW 5 10.00 NULL NULL 75.2 55.4 50% 78 30.16 0.0
18 16:35 SW 8 10.00 NULL NULL 75.2 53.6 47% 78 30.16 0.0
18 16:15 SW 3 10.00 NULL NULL 75.2 53.6 47% 78 30.17 0.0
18 15:56 SW 6 10.00 NULL NULL 75.2 53.6 47% 78 30.17 0.0
18 15:35 SW 8 10.00 NULL NULL 75.2 53.6 47% 78 30.18 0.0
18 15:15 Calm 10.00 NULL NULL 75.2 53.6 47% 78 30.18 0.0
18 14:55 S 7 10.00 NULL NULL 75.2 53.6 47% 78 30.18 0.0
18 14:35 SW 5 10.00 NULL NULL 75.2 53.6 47% 78 30.19 0.0
18 14:15 SW 5 10.00 NULL NULL 75.2 53.6 47% 78 30.19 0.0
18 13:55 SW 5 10.00 NULL NULL 75.2 55.4 50% 78 30.2 0.0
18 13:36 SW 5 10.00 NULL NULL 73.4 53.6 50% 30.2 0.0
18 13:15 Calm 10.00 NULL NULL 73.4 53.6 50% 30.21 0.0
18 12:55 W 5 10.00 NULL NULL 73.4 53.6 50% 30.21 0.0
18 12:35 SW 7 10.00 NULL NULL 73.4 53.6 50% 30.22 0.0
18 12:15 Calm 10.00 NULL NULL 71.6 53.6 53% 30.21 0.0
18 11:55 W 3 10.00 NULL NULL 71.6 53.6 53% 30.21 0.0
18 11:35 W 7 10.00 NULL NULL 71.6 53.6 53% 30.22 0.0
18 11:16 SW 5 10.00 NULL NULL 71.6 51.8 50% 30.22 0.0
18 10:55 W 7 10.00 NULL NULL 71.6 53.6 53% 30.22 0.0
18 10:35 Calm 10.00 NULL NULL 69.8 53.6 57% 30.22 0.0
18 10:15 Calm 10.00 NULL NULL 69.8 55.4 60% 30.22 0.0
18 09:55 Calm 10.00 NULL NULL 68 55.4 64% 30.22 0.0
18 09:35 Calm 10.00 NULL NULL 66.2 55.4 68% 30.23 0.0
18 09:15 S 3 10.00 NULL NULL 64.4 55.4 73% 30.23 0.0
18 08:56 Calm 10.00 NULL NULL 62.6 55.4 77% 30.23 0.0
18 08:35 Calm 10.00 NULL NULL 60.8 55.4 83% 30.23 0.0
18 08:15 Calm 10.00 NULL NULL 59 53.6 82% 30.23 0.0
18 07:55 Calm 10.00 NULL NULL 55.4 53.6 94% 30.23 0.0
18 07:35 Calm 10.00 NULL NULL 53.6 51.8 94% 30.23 0.0
18 07:15 Calm 10.00 NULL NULL 53.6 50 88% 30.23 0.0
18 06:55 Calm 10.00 NULL NULL 51.8 50 94% 30.23 0.0
18 06:36 Calm 10.00 NULL NULL 50 48.2 94% 30.23 0.0
18 06:15 Calm 10.00 NULL NULL 48.2 48.2 100% 30.23 0.0
18 05:55 Calm 10.00 NULL NULL 48.2 46.4 94% 30.23 0.0
18 05:35 Calm 10.00 NULL NULL 48.2 46.4 94% 30.23 0.0
18 05:15 Calm 10.00 NULL NULL 48.2 48.2 100% 30.23 0.0
18 04:55 Calm 10.00 NULL NULL 48.2 48.2 100% 30.23 0.0
18 04:35 Calm 10.00 NULL NULL 48.2 48.2 100% 30.23 0.0
17 22:15 Calm 10.00 NULL NULL 59 53.6 82% 30.2 0.0
17 21:55 Calm 10.00 NULL NULL 60.8 53.6 77% 30.2 0.0
17 21:35 Calm 10.00 NULL NULL 60.8 53.6 77% 30.19 0.0
17 21:16 Calm 10.00 NULL NULL 62.6 53.6 73% 30.19 0.0
17 20:55 Calm 10.00 NULL NULL 64.4 53.6 68% 30.18 0.0
17 20:35 Calm 10.00 NULL NULL 66.2 53.6 64% 30.18 0.0
17 20:15 Calm 10.00 NULL NULL 68 53.6 60% 30.18 0.0
17 19:55 Calm 10.00 NULL NULL 69.8 51.8 53% 30.18 0.0
17 19:35 N 3 10.00 NULL NULL 69.8 51.8 53% 30.18 0.0
17 19:15 N 7 10.00 NULL NULL 71.6 48.2 44% 30.18 0.0
17 18:56 NW 6 10.00 NULL NULL 71.6 51.8 50% 30.18 0.0
17 18:35 NW 7 10.00 NULL NULL 71.6 50 47% 30.18 0.0
17 18:15 Calm 10.00 NULL NULL 71.6 48.2 44% 30.18 0.0
17 17:55 N 8 10.00 NULL NULL 71.6 50 47% 30.18 0.0
17 17:35 N 5 10.00 NULL NULL 73.4 50 44% 30.18 0.0
17 17:15 NW 6 10.00 NULL NULL 71.6 48.2 44% 30.18 0.0
17 16:55 NE 10 10.00 NULL NULL 73.4 51.8 47% 30.19 0.0
17 16:36 N 5 10.00 NULL NULL 73.4 51.8 47% 30.19 0.0
17 16:15 N 6 10.00 NULL NULL 71.6 51.8 50% 30.19 0.0
17 15:55 NW 9 10.00 NULL NULL 71.6 51.8 50% 30.19 0.0
17 15:35 NW 7 10.00 NULL NULL 71.6 50 47% 30.19 0.0
17 15:15 N 8 10.00 NULL NULL 71.6 51.8 50% 30.19 0.0
17 14:55 N 8 10.00 NULL NULL 71.6 51.8 50% 30.19 0.0
17 14:35 N 8 10.00 NULL NULL 69.8 51.8 53% 30.19 0.0
17 14:16 NW 3 10.00 NULL NULL 69.8 50 50% 30.19 0.0
17 13:55 N 9 10.00 NULL NULL 69.8 51.8 53% 30.19 0.0
17 13:35 N 7 10.00 NULL NULL 69.8 51.8 53% 30.19 0.0
17 13:15 N 10 10.00 NULL NULL 69.8 51.8 53% 30.2 0.0
17 12:55 N 12 10.00 NULL NULL 68 51.8 56% 30.2 0.0
17 12:35 N 7 10.00 NULL NULL 68 51.8 56% 30.2 0.0
17 12:15 N 8 10.00 NULL NULL 68 53.6 60% 30.2 0.0
17 11:56 NE 7 10.00 NULL NULL 66.2 51.8 60% 30.21 0.0
17 11:35 NE 5 10.00 NULL NULL 66.2 51.8 60% 30.21 0.0
17 11:15 N 7 10.00 NULL NULL 66.2 51.8 60% 30.21 0.0
17 10:55 N 7 10.00 NULL NULL 64.4 51.8 64% 30.21 0.0
Date Time (cdt) Wind (mph) Vis. (mi.) Weather Sky Cond. Air Dwpt Max. Min. Relative Humidity Wind Chill (°F) Heat Index (°F) altimeter (in) sea level (mb) 1 hr 3 hr 6 hr
6 hour
Temperature (ºF) Pressure Precipitation (in)